Year,Month,Day,Hour,Minute,Value (Times are PST for temperature in C)
2015,08,05,00,00,17.90
2015,08,05,00,01,17.90
2015,08,05,00,02,17.90
2015,08,05,00,03,17.90
2015,08,05,00,04,17.80
2015,08,05,00,05,17.90
2015,08,05,00,06,17.90
2015,08,05,00,07,17.90
2015,08,05,00,08,17.90
2015,08,05,00,09,17.90
2015,08,05,00,10,17.90
2015,08,05,00,11,17.90
2015,08,05,00,12,17.90
2015,08,05,00,13,17.90
2015,08,05,00,14,17.90
2015,08,05,00,15,17.90
2015,08,05,00,16,17.90
2015,08,05,00,17,17.90
2015,08,05,00,18,17.90
2015,08,05,00,19,17.80
2015,08,05,00,20,17.80
2015,08,05,00,21,17.80
2015,08,05,00,22,17.80
2015,08,05,00,23,17.80
2015,08,05,00,24,17.80
2015,08,05,00,25,17.80
2015,08,05,00,26,17.80
2015,08,05,00,27,17.80
2015,08,05,00,28,17.70
2015,08,05,00,29,17.70
2015,08,05,00,30,17.70
2015,08,05,00,31,17.70
2015,08,05,00,32,17.70
2015,08,05,00,33,17.70
2015,08,05,00,34,17.70
2015,08,05,00,35,17.70
2015,08,05,00,36,17.70
2015,08,05,00,37,17.70
2015,08,05,00,38,17.70
2015,08,05,00,39,17.70
2015,08,05,00,40,17.70
2015,08,05,00,41,17.70
2015,08,05,00,42,17.70
2015,08,05,00,43,17.70
2015,08,05,00,44,17.70
2015,08,05,00,45,17.70
2015,08,05,00,46,17.70
2015,08,05,00,47,17.70
2015,08,05,00,48,17.70
2015,08,05,00,49,17.70
2015,08,05,00,50,17.70
2015,08,05,00,51,17.70
2015,08,05,00,52,17.70
2015,08,05,00,53,17.60
2015,08,05,00,54,17.60
2015,08,05,00,55,17.60
2015,08,05,00,56,17.60
2015,08,05,00,57,17.60
2015,08,05,00,58,17.60
2015,08,05,00,59,17.60
2015,08,05,01,00,17.50
2015,08,05,01,01,17.50
2015,08,05,01,02,17.50
2015,08,05,01,03,17.40
2015,08,05,01,04,17.40
2015,08,05,01,05,17.40
2015,08,05,01,06,17.40
2015,08,05,01,07,17.40
2015,08,05,01,08,17.30
2015,08,05,01,09,17.30
2015,08,05,01,10,17.20
2015,08,05,01,11,17.20
2015,08,05,01,12,17.10
2015,08,05,01,13,17.10
2015,08,05,01,14,17.10
2015,08,05,01,15,17.00
2015,08,05,01,16,17.00
2015,08,05,01,17,16.90
2015,08,05,01,18,16.90
2015,08,05,01,19,16.90
2015,08,05,01,20,16.90
2015,08,05,01,21,16.80
2015,08,05,01,22,16.80
2015,08,05,01,23,16.80
2015,08,05,01,24,16.80
2015,08,05,01,25,16.80
2015,08,05,01,26,16.80
2015,08,05,01,27,16.80
2015,08,05,01,28,16.80
2015,08,05,01,29,16.80
2015,08,05,01,30,16.80
2015,08,05,01,31,16.80
2015,08,05,01,32,16.80
2015,08,05,01,33,16.80
2015,08,05,01,34,16.80
2015,08,05,01,35,16.80
2015,08,05,01,36,16.80
2015,08,05,01,37,16.80
2015,08,05,01,38,16.80
2015,08,05,01,39,16.80
2015,08,05,01,40,16.70
2015,08,05,01,41,16.70
2015,08,05,01,42,16.70
2015,08,05,01,43,16.70
2015,08,05,01,44,16.70
2015,08,05,01,45,16.70
2015,08,05,01,46,16.70
2015,08,05,01,47,16.70
2015,08,05,01,48,16.70
2015,08,05,01,49,16.70
2015,08,05,01,50,16.70
2015,08,05,01,51,16.70
2015,08,05,01,52,16.70
2015,08,05,01,53,16.60
2015,08,05,01,54,16.60
2015,08,05,01,55,16.60
2015,08,05,01,56,16.60
2015,08,05,01,57,16.60
2015,08,05,01,58,16.60
2015,08,05,01,59,16.60
2015,08,05,02,00,16.50
2015,08,05,02,01,16.50
2015,08,05,02,02,16.50
2015,08,05,02,03,16.50
2015,08,05,02,04,16.40
2015,08,05,02,05,16.40
2015,08,05,02,06,16.40
2015,08,05,02,07,16.40
2015,08,05,02,08,16.40
2015,08,05,02,09,16.40
2015,08,05,02,10,16.40
2015,08,05,02,11,16.30
2015,08,05,02,12,16.30
2015,08,05,02,13,16.30
2015,08,05,02,14,16.20
2015,08,05,02,15,16.20
2015,08,05,02,16,16.20
2015,08,05,02,17,16.20
2015,08,05,02,18,16.20
2015,08,05,02,19,16.20
2015,08,05,02,20,16.20
2015,08,05,02,21,16.20
2015,08,05,02,22,16.20
2015,08,05,02,23,16.20
2015,08,05,02,24,16.20
2015,08,05,02,25,16.20
2015,08,05,02,26,16.20
2015,08,05,02,27,16.20
2015,08,05,02,28,16.20
2015,08,05,02,29,16.20
2015,08,05,02,30,16.20
2015,08,05,02,31,16.20
2015,08,05,02,32,16.20
2015,08,05,02,33,16.20
2015,08,05,02,34,16.20
2015,08,05,02,35,16.20
2015,08,05,02,36,16.20
2015,08,05,02,37,16.20
2015,08,05,02,38,16.10
2015,08,05,02,39,16.10
2015,08,05,02,40,16.10
2015,08,05,02,41,16.00
2015,08,05,02,42,16.00
2015,08,05,02,43,15.90
2015,08,05,02,44,15.90
2015,08,05,02,45,15.90
2015,08,05,02,46,15.90
2015,08,05,02,47,15.90
2015,08,05,02,48,15.90
2015,08,05,02,49,15.90
2015,08,05,02,50,15.90
2015,08,05,02,51,15.90
2015,08,05,02,52,15.90
2015,08,05,02,53,15.90
2015,08,05,02,54,15.90
2015,08,05,02,55,15.90
2015,08,05,02,56,15.90
2015,08,05,02,57,15.90
2015,08,05,02,58,15.90
2015,08,05,02,59,15.90
2015,08,05,03,00,15.90
2015,08,05,03,01,15.80
2015,08,05,03,02,15.80
2015,08,05,03,03,15.80
2015,08,05,03,04,15.80
2015,08,05,03,05,15.80
2015,08,05,03,06,15.80
2015,08,05,03,07,15.80
2015,08,05,03,08,15.80
2015,08,05,03,09,15.80
2015,08,05,03,10,15.80
2015,08,05,03,11,15.80
2015,08,05,03,12,15.80
2015,08,05,03,13,15.80
2015,08,05,03,14,15.80
2015,08,05,03,15,15.80
2015,08,05,03,16,15.70
2015,08,05,03,17,15.70
2015,08,05,03,18,15.70
2015,08,05,03,19,15.70
2015,08,05,03,20,15.70
2015,08,05,03,21,15.70
2015,08,05,03,22,15.70
2015,08,05,03,23,15.70
2015,08,05,03,24,15.70
2015,08,05,03,25,15.70
2015,08,05,03,26,15.70
2015,08,05,03,27,15.70
2015,08,05,03,28,15.70
2015,08,05,03,29,15.60
2015,08,05,03,30,15.60
2015,08,05,03,31,15.60
2015,08,05,03,32,15.60
2015,08,05,03,33,15.60
2015,08,05,03,34,15.60
2015,08,05,03,35,15.50
2015,08,05,03,36,15.50
2015,08,05,03,37,15.50
2015,08,05,03,38,15.50
2015,08,05,03,39,15.50
2015,08,05,03,40,15.50
2015,08,05,03,41,15.50
2015,08,05,03,42,15.50
2015,08,05,03,43,15.50
2015,08,05,03,44,15.50
2015,08,05,03,45,15.50
2015,08,05,03,46,15.50
2015,08,05,03,47,15.50
2015,08,05,03,48,15.50
2015,08,05,03,49,15.50
2015,08,05,03,50,15.50
2015,08,05,03,51,15.40
2015,08,05,03,52,15.40
2015,08,05,03,53,15.40
2015,08,05,03,54,15.40
2015,08,05,03,55,15.40
2015,08,05,03,56,15.40
2015,08,05,03,57,15.40
2015,08,05,03,58,15.40
2015,08,05,03,59,15.40
2015,08,05,04,00,15.40
2015,08,05,04,01,15.50
2015,08,05,04,02,15.50
2015,08,05,04,03,15.50
2015,08,05,04,04,15.50
2015,08,05,04,05,15.50
2015,08,05,04,06,15.60
2015,08,05,04,07,15.60
2015,08,05,04,08,15.60
2015,08,05,04,09,15.60
2015,08,05,04,10,15.60
2015,08,05,04,11,15.60
2015,08,05,04,12,15.60
2015,08,05,04,13,15.60
2015,08,05,04,14,15.60
2015,08,05,04,15,15.60
2015,08,05,04,16,15.60
2015,08,05,04,17,15.60
2015,08,05,04,18,15.60
2015,08,05,04,19,15.60
2015,08,05,04,20,15.60
2015,08,05,04,21,15.60
2015,08,05,04,22,15.60
2015,08,05,04,23,15.60
2015,08,05,04,24,15.60
2015,08,05,04,25,15.60
2015,08,05,04,26,15.60
2015,08,05,04,27,15.60
2015,08,05,04,28,15.60
2015,08,05,04,29,15.60
2015,08,05,04,30,15.60
2015,08,05,04,31,15.50
2015,08,05,04,32,15.50
2015,08,05,04,33,15.50
2015,08,05,04,34,15.50
2015,08,05,04,35,15.50
2015,08,05,04,36,15.50
2015,08,05,04,37,15.50
2015,08,05,04,38,15.50
2015,08,05,04,39,15.50
2015,08,05,04,40,15.50
2015,08,05,04,41,15.60
2015,08,05,04,42,15.50
2015,08,05,04,43,15.50
2015,08,05,04,44,15.50
2015,08,05,04,45,15.50
2015,08,05,04,46,15.60
2015,08,05,04,47,15.50
2015,08,05,04,48,15.60
2015,08,05,04,49,15.50
2015,08,05,04,50,15.50
2015,08,05,04,51,15.50
2015,08,05,04,52,15.50
2015,08,05,04,53,15.50
2015,08,05,04,54,15.50
2015,08,05,04,55,15.50
2015,08,05,04,56,15.40
2015,08,05,04,57,15.40
2015,08,05,04,58,15.40
2015,08,05,04,59,15.40
2015,08,05,05,00,15.40
2015,08,05,05,01,15.40
2015,08,05,05,02,15.40
2015,08,05,05,03,15.30
2015,08,05,05,04,15.30
2015,08,05,05,05,15.30
2015,08,05,05,06,15.30
2015,08,05,05,07,15.30
2015,08,05,05,08,15.30
2015,08,05,05,09,15.30
2015,08,05,05,10,15.30
2015,08,05,05,11,15.30
2015,08,05,05,12,15.30
2015,08,05,05,13,15.30
2015,08,05,05,14,15.30
2015,08,05,05,15,15.30
2015,08,05,05,16,15.30
2015,08,05,05,17,15.30
2015,08,05,05,18,15.30
2015,08,05,05,19,15.30
2015,08,05,05,20,15.30
2015,08,05,05,21,15.30
2015,08,05,05,22,15.30
2015,08,05,05,23,15.30
2015,08,05,05,24,15.40
2015,08,05,05,25,15.40
2015,08,05,05,26,15.40
2015,08,05,05,27,15.40
2015,08,05,05,28,15.40
2015,08,05,05,29,15.40
2015,08,05,05,30,15.40
2015,08,05,05,31,15.40
2015,08,05,05,32,15.50
2015,08,05,05,33,15.50
2015,08,05,05,34,15.50
2015,08,05,05,35,15.50
2015,08,05,05,36,15.50
2015,08,05,05,37,15.50
2015,08,05,05,38,15.50
2015,08,05,05,39,15.50
2015,08,05,05,40,15.50
2015,08,05,05,41,15.50
2015,08,05,05,42,15.50
2015,08,05,05,43,15.50
2015,08,05,05,44,15.50
2015,08,05,05,45,15.60
2015,08,05,05,46,15.50
2015,08,05,05,47,15.50
2015,08,05,05,48,15.50
2015,08,05,05,49,15.50
2015,08,05,05,50,15.50
2015,08,05,05,51,15.50
2015,08,05,05,52,15.40
2015,08,05,05,53,15.40
2015,08,05,05,54,15.40
2015,08,05,05,55,15.40
2015,08,05,05,56,15.40
2015,08,05,05,57,15.40
2015,08,05,05,58,15.40
2015,08,05,05,59,15.30
2015,08,05,06,00,15.30
2015,08,05,06,01,15.30
2015,08,05,06,02,15.30
2015,08,05,06,03,15.30
2015,08,05,06,04,15.30
2015,08,05,06,05,15.30
2015,08,05,06,06,15.30
2015,08,05,06,07,15.20
2015,08,05,06,08,15.20
2015,08,05,06,09,15.20
2015,08,05,06,10,15.20
2015,08,05,06,11,15.20
2015,08,05,06,12,15.20
2015,08,05,06,13,15.20
2015,08,05,06,14,15.20
2015,08,05,06,15,15.20
2015,08,05,06,16,15.20
2015,08,05,06,17,15.30
2015,08,05,06,18,15.30
2015,08,05,06,19,15.30
2015,08,05,06,20,15.30
2015,08,05,06,21,15.30
2015,08,05,06,22,15.40
2015,08,05,06,23,15.40
2015,08,05,06,24,15.40
2015,08,05,06,25,15.40
2015,08,05,06,26,15.50
2015,08,05,06,27,15.50
2015,08,05,06,28,15.60
2015,08,05,06,29,15.60
2015,08,05,06,30,15.60
2015,08,05,06,31,15.60
2015,08,05,06,32,15.60
2015,08,05,06,33,15.60
2015,08,05,06,34,15.60
2015,08,05,06,35,15.60
2015,08,05,06,36,15.60
2015,08,05,06,37,15.60
2015,08,05,06,38,15.60
2015,08,05,06,39,15.60
2015,08,05,06,40,15.60
2015,08,05,06,41,15.60
2015,08,05,06,42,15.60
2015,08,05,06,43,15.70
2015,08,05,06,44,15.70
2015,08,05,06,45,15.70
2015,08,05,06,46,15.70
2015,08,05,06,47,15.70
2015,08,05,06,48,15.70
2015,08,05,06,49,15.70
2015,08,05,06,50,15.70
2015,08,05,06,51,15.70
2015,08,05,06,52,15.70
2015,08,05,06,53,15.70
2015,08,05,06,54,15.70
2015,08,05,06,55,15.70
2015,08,05,06,56,15.70
2015,08,05,06,57,15.70
2015,08,05,06,58,15.70
2015,08,05,06,59,15.70
2015,08,05,07,00,15.70
2015,08,05,07,01,15.70
2015,08,05,07,02,15.70
2015,08,05,07,03,15.70
2015,08,05,07,04,15.70
2015,08,05,07,05,15.70
2015,08,05,07,06,15.70
2015,08,05,07,07,15.70
2015,08,05,07,08,15.70
2015,08,05,07,09,15.70
2015,08,05,07,10,15.70
2015,08,05,07,11,15.70
2015,08,05,07,12,15.70
2015,08,05,07,13,15.80
2015,08,05,07,14,15.80
2015,08,05,07,15,15.80
2015,08,05,07,16,15.80
2015,08,05,07,17,15.80
2015,08,05,07,18,15.90
2015,08,05,07,19,15.90
2015,08,05,07,20,15.90
2015,08,05,07,21,15.90
2015,08,05,07,22,16.00
2015,08,05,07,23,16.00
2015,08,05,07,24,16.00
2015,08,05,07,25,16.00
2015,08,05,07,26,16.10
2015,08,05,07,27,16.10
2015,08,05,07,28,16.10
2015,08,05,07,29,16.10
2015,08,05,07,30,16.10
2015,08,05,07,31,16.10
2015,08,05,07,32,16.10
2015,08,05,07,33,16.10
2015,08,05,07,34,16.10
2015,08,05,07,35,16.10
2015,08,05,07,36,16.10
2015,08,05,07,37,16.10
2015,08,05,07,38,16.10
2015,08,05,07,39,16.10
2015,08,05,07,40,16.10
2015,08,05,07,41,16.10
2015,08,05,07,42,16.10
2015,08,05,07,43,16.10
2015,08,05,07,44,16.10
2015,08,05,07,45,16.10
2015,08,05,07,46,16.10
2015,08,05,07,47,16.10
2015,08,05,07,48,16.20
2015,08,05,07,49,16.20
2015,08,05,07,50,16.20
2015,08,05,07,51,16.20
2015,08,05,07,52,16.20
2015,08,05,07,53,16.20
2015,08,05,07,54,16.20
2015,08,05,07,55,16.20
2015,08,05,07,56,16.10
2015,08,05,07,57,16.10
2015,08,05,07,58,16.10
2015,08,05,07,59,16.10
2015,08,05,08,00,16.10
2015,08,05,08,01,16.10
2015,08,05,08,02,16.10
2015,08,05,08,03,16.10
2015,08,05,08,04,16.10
2015,08,05,08,05,16.10
2015,08,05,08,06,16.10
2015,08,05,08,07,16.10
2015,08,05,08,08,16.10
2015,08,05,08,09,16.10
2015,08,05,08,10,16.00
2015,08,05,08,11,16.00
2015,08,05,08,12,16.00
2015,08,05,08,13,16.00
2015,08,05,08,14,16.00
2015,08,05,08,15,16.00
2015,08,05,08,16,16.00
2015,08,05,08,17,16.00
2015,08,05,08,18,16.00
2015,08,05,08,19,16.00
2015,08,05,08,20,16.00
2015,08,05,08,21,15.90
2015,08,05,08,22,15.90
2015,08,05,08,23,15.90
2015,08,05,08,24,15.90
2015,08,05,08,25,15.90
2015,08,05,08,26,15.90
2015,08,05,08,27,15.90
2015,08,05,08,28,15.90
2015,08,05,08,29,15.90
2015,08,05,08,30,15.90
2015,08,05,08,31,15.90
2015,08,05,08,32,15.80
2015,08,05,08,33,15.80
2015,08,05,08,34,15.80
2015,08,05,08,35,15.80
2015,08,05,08,36,15.80
2015,08,05,08,37,15.80
2015,08,05,08,38,15.80
2015,08,05,08,39,15.70
2015,08,05,08,40,15.70
2015,08,05,08,41,15.70
2015,08,05,08,42,15.70
2015,08,05,08,43,15.70
2015,08,05,08,44,15.70
2015,08,05,08,45,15.70
2015,08,05,08,46,15.70
2015,08,05,08,47,15.70
2015,08,05,08,48,15.70
2015,08,05,08,49,15.70
2015,08,05,08,50,15.60
2015,08,05,08,51,15.60
2015,08,05,08,52,15.60
2015,08,05,08,53,15.60
2015,08,05,08,54,15.60
2015,08,05,08,55,15.60
2015,08,05,08,56,15.60
2015,08,05,08,57,15.60
2015,08,05,08,58,15.60
2015,08,05,08,59,15.60
2015,08,05,09,00,15.60
2015,08,05,09,01,15.60
2015,08,05,09,02,15.60
2015,08,05,09,03,15.60
2015,08,05,09,04,15.60
2015,08,05,09,05,15.60
2015,08,05,09,06,15.60
2015,08,05,09,07,15.60
2015,08,05,09,08,15.60
2015,08,05,09,09,15.60
2015,08,05,09,10,15.60
2015,08,05,09,11,15.60
2015,08,05,09,12,15.60
2015,08,05,09,13,15.60
2015,08,05,09,14,15.60
2015,08,05,09,15,15.60
2015,08,05,09,16,15.60
2015,08,05,09,17,15.60
2015,08,05,09,18,15.60
2015,08,05,09,19,15.60
2015,08,05,09,20,15.60
2015,08,05,09,21,15.60
2015,08,05,09,22,15.60
2015,08,05,09,23,15.60
2015,08,05,09,24,15.60
2015,08,05,09,25,15.60
2015,08,05,09,26,15.60
2015,08,05,09,27,15.60
2015,08,05,09,28,15.60
2015,08,05,09,29,15.60
2015,08,05,09,30,15.60
2015,08,05,09,31,15.70
2015,08,05,09,32,15.70
2015,08,05,09,33,15.70
2015,08,05,09,34,15.70
2015,08,05,09,35,15.70
2015,08,05,09,36,15.70
2015,08,05,09,37,15.70
2015,08,05,09,38,15.70
2015,08,05,09,39,15.70
2015,08,05,09,40,15.70
2015,08,05,09,41,15.70
2015,08,05,09,42,15.70
2015,08,05,09,43,15.70
2015,08,05,09,44,15.70
2015,08,05,09,45,15.70
2015,08,05,09,46,15.70
2015,08,05,09,47,15.70
2015,08,05,09,48,15.70
2015,08,05,09,49,15.70
2015,08,05,09,50,15.70
2015,08,05,09,51,15.70
2015,08,05,09,52,15.70
2015,08,05,09,53,15.70
2015,08,05,09,54,15.70
2015,08,05,09,55,15.70
2015,08,05,09,56,15.70
2015,08,05,09,57,15.80
2015,08,05,09,58,15.80
2015,08,05,09,59,15.80
2015,08,05,10,00,15.80
2015,08,05,10,01,15.80
2015,08,05,10,02,15.80
2015,08,05,10,03,15.80
2015,08,05,10,04,15.80
2015,08,05,10,05,15.80
2015,08,05,10,06,15.80
2015,08,05,10,07,15.80
2015,08,05,10,08,15.80
2015,08,05,10,09,15.80
2015,08,05,10,10,15.80
2015,08,05,10,11,15.80
2015,08,05,10,12,15.80
2015,08,05,10,13,15.80
2015,08,05,10,14,15.80
2015,08,05,10,15,15.80
2015,08,05,10,16,15.80
2015,08,05,10,17,15.80
2015,08,05,10,18,15.70
2015,08,05,10,19,15.70
2015,08,05,10,20,15.70
2015,08,05,10,21,15.70
2015,08,05,10,22,15.70
2015,08,05,10,23,15.70
2015,08,05,10,24,15.70
2015,08,05,10,25,15.70
2015,08,05,10,26,15.70
2015,08,05,10,27,15.80
2015,08,05,10,28,15.80
2015,08,05,10,29,15.80
2015,08,05,10,30,15.80
2015,08,05,10,31,15.80
2015,08,05,10,32,15.90
2015,08,05,10,33,15.90
2015,08,05,10,34,15.90
2015,08,05,10,35,15.90
2015,08,05,10,36,15.90
2015,08,05,10,37,15.90
2015,08,05,10,38,15.90
2015,08,05,10,39,15.90
2015,08,05,10,40,15.90
2015,08,05,10,41,15.90
2015,08,05,10,42,15.90
2015,08,05,10,43,15.90
2015,08,05,10,44,15.90
2015,08,05,10,45,15.90
2015,08,05,10,46,15.90
2015,08,05,10,47,15.90
2015,08,05,10,48,15.90
2015,08,05,10,49,15.90
2015,08,05,10,50,15.90
2015,08,05,10,51,15.90
2015,08,05,10,52,15.90
2015,08,05,10,53,15.90
2015,08,05,10,54,15.90
2015,08,05,10,55,15.90
2015,08,05,10,56,15.90
2015,08,05,10,57,15.90
2015,08,05,10,58,15.90
2015,08,05,10,59,15.90
2015,08,05,11,00,15.90
2015,08,05,11,01,15.90
2015,08,05,11,02,15.90
2015,08,05,11,03,15.90
2015,08,05,11,04,15.90
2015,08,05,11,05,15.90
2015,08,05,11,06,15.90
2015,08,05,11,07,15.90
2015,08,05,11,08,15.90
2015,08,05,11,09,15.90
2015,08,05,11,10,15.90
2015,08,05,11,11,15.90
2015,08,05,11,12,15.90
2015,08,05,11,13,15.90
2015,08,05,11,14,15.90
2015,08,05,11,15,15.90
2015,08,05,11,16,15.90
2015,08,05,11,17,16.00
2015,08,05,11,18,16.00
2015,08,05,11,19,16.00
2015,08,05,11,20,16.00
2015,08,05,11,21,16.00
2015,08,05,11,22,16.00
2015,08,05,11,23,16.00
2015,08,05,11,24,16.00
2015,08,05,11,25,16.00
2015,08,05,11,26,16.10
2015,08,05,11,27,16.10
2015,08,05,11,28,16.10
2015,08,05,11,29,16.10
2015,08,05,11,30,16.10
2015,08,05,11,31,16.10
2015,08,05,11,32,16.10
2015,08,05,11,33,16.10
2015,08,05,11,34,16.20
2015,08,05,11,35,16.20
2015,08,05,11,36,16.20
2015,08,05,11,37,16.20
2015,08,05,11,38,16.30
2015,08,05,11,39,16.30
2015,08,05,11,40,16.40
2015,08,05,11,41,16.40
2015,08,05,11,42,16.50
2015,08,05,11,43,16.60
2015,08,05,11,44,16.60
2015,08,05,11,45,16.70
2015,08,05,11,46,16.70
2015,08,05,11,47,16.70
2015,08,05,11,48,16.80
2015,08,05,11,49,16.80
2015,08,05,11,50,16.80
2015,08,05,11,51,16.80
2015,08,05,11,52,16.90
2015,08,05,11,53,16.90
2015,08,05,11,54,17.00
2015,08,05,11,55,17.00
2015,08,05,11,56,17.10
2015,08,05,11,57,17.10
2015,08,05,11,58,17.20
2015,08,05,11,59,17.20
2015,08,05,12,00,17.20
2015,08,05,12,01,17.20
2015,08,05,12,02,17.20
2015,08,05,12,03,17.20
2015,08,05,12,04,17.30
2015,08,05,12,05,17.30
2015,08,05,12,06,17.40
2015,08,05,12,07,17.40
2015,08,05,12,08,17.50
2015,08,05,12,09,17.60
2015,08,05,12,10,17.60
2015,08,05,12,11,17.70
2015,08,05,12,12,17.70
2015,08,05,12,13,17.70
2015,08,05,12,14,17.80
2015,08,05,12,15,17.80
2015,08,05,12,16,17.80
2015,08,05,12,17,17.80
2015,08,05,12,18,17.90
2015,08,05,12,19,18.00
2015,08,05,12,20,18.00
2015,08,05,12,21,18.00
2015,08,05,12,22,17.90
2015,08,05,12,23,17.90
2015,08,05,12,24,17.90
2015,08,05,12,25,17.90
2015,08,05,12,26,17.90
2015,08,05,12,27,17.90
2015,08,05,12,28,17.90
2015,08,05,12,29,17.90
2015,08,05,12,30,17.90
2015,08,05,12,31,17.80
2015,08,05,12,32,17.80
2015,08,05,12,33,17.80
2015,08,05,12,34,17.80
2015,08,05,12,35,17.80
2015,08,05,12,36,17.80
2015,08,05,12,37,17.80
2015,08,05,12,38,17.80
2015,08,05,12,39,17.70
2015,08,05,12,40,17.70
2015,08,05,12,41,17.70
2015,08,05,12,42,17.60
2015,08,05,12,43,17.60
2015,08,05,12,44,17.60
2015,08,05,12,45,17.60
2015,08,05,12,46,17.50
2015,08,05,12,47,17.50
2015,08,05,12,48,17.40
2015,08,05,12,49,17.40
2015,08,05,12,50,17.30
2015,08,05,12,51,17.30
2015,08,05,12,52,17.30
2015,08,05,12,53,17.20
2015,08,05,12,54,17.20
2015,08,05,12,55,17.20
2015,08,05,12,56,17.20
2015,08,05,12,57,17.20
2015,08,05,12,58,17.10
2015,08,05,12,59,17.10
2015,08,05,13,00,17.10
2015,08,05,13,01,17.10
2015,08,05,13,02,17.10
2015,08,05,13,03,17.00
2015,08,05,13,04,17.10
2015,08,05,13,05,17.10
2015,08,05,13,06,17.10
2015,08,05,13,07,17.10
2015,08,05,13,08,17.10
2015,08,05,13,09,17.20
2015,08,05,13,10,17.20
2015,08,05,13,11,17.20
2015,08,05,13,12,17.20
2015,08,05,13,13,17.20
2015,08,05,13,14,17.30
2015,08,05,13,15,17.30
2015,08,05,13,16,17.30
2015,08,05,13,17,17.40
2015,08,05,13,18,17.40
2015,08,05,13,19,17.50
2015,08,05,13,20,17.60
2015,08,05,13,21,17.60
2015,08,05,13,22,17.70
2015,08,05,13,23,17.80
2015,08,05,13,24,17.90
2015,08,05,13,25,18.10
2015,08,05,13,26,18.30
2015,08,05,13,27,18.50
2015,08,05,13,28,18.70
2015,08,05,13,29,18.80
2015,08,05,13,30,18.90
2015,08,05,13,31,18.90
2015,08,05,13,32,19.10
2015,08,05,13,33,19.10
2015,08,05,13,34,19.20
2015,08,05,13,35,19.30
2015,08,05,13,36,19.40
2015,08,05,13,37,19.40
2015,08,05,13,38,19.50
2015,08,05,13,39,19.50
2015,08,05,13,40,19.50
2015,08,05,13,41,19.60
2015,08,05,13,42,19.60
2015,08,05,13,43,19.70
2015,08,05,13,44,19.80
2015,08,05,13,45,19.80
2015,08,05,13,46,19.80
2015,08,05,13,47,19.80
2015,08,05,13,48,19.80
2015,08,05,13,49,19.70
2015,08,05,13,50,19.80
2015,08,05,13,51,19.80
2015,08,05,13,52,19.90
2015,08,05,13,53,19.90
2015,08,05,13,54,20.00
2015,08,05,13,55,20.10
2015,08,05,13,56,20.20
2015,08,05,13,57,20.30
2015,08,05,13,58,20.50
2015,08,05,13,59,20.60
2015,08,05,14,00,20.60
2015,08,05,14,01,20.70
2015,08,05,14,02,20.80
2015,08,05,14,03,20.90
2015,08,05,14,04,21.00
2015,08,05,14,05,21.00
2015,08,05,14,06,21.10
2015,08,05,14,07,21.20
2015,08,05,14,08,21.30
2015,08,05,14,09,21.40
2015,08,05,14,10,21.50
2015,08,05,14,11,21.50
2015,08,05,14,12,21.40
2015,08,05,14,13,21.40
2015,08,05,14,14,21.50
2015,08,05,14,15,21.40
2015,08,05,14,16,21.30
2015,08,05,14,17,21.20
2015,08,05,14,18,21.10
2015,08,05,14,19,21.00
2015,08,05,14,20,21.00
2015,08,05,14,21,21.00
2015,08,05,14,22,21.10
2015,08,05,14,23,21.10
2015,08,05,14,24,21.00
2015,08,05,14,25,20.90
2015,08,05,14,26,20.80
2015,08,05,14,27,20.70
2015,08,05,14,28,20.70
2015,08,05,14,29,20.60
2015,08,05,14,30,20.50
2015,08,05,14,31,20.50
2015,08,05,14,32,20.50
2015,08,05,14,33,20.60
2015,08,05,14,34,20.60
2015,08,05,14,35,20.70
2015,08,05,14,36,20.70
2015,08,05,14,37,20.60
2015,08,05,14,38,20.60
2015,08,05,14,39,20.60
2015,08,05,14,40,20.60
2015,08,05,14,41,20.60
2015,08,05,14,42,20.70
2015,08,05,14,43,20.70
2015,08,05,14,44,20.70
2015,08,05,14,45,20.70
2015,08,05,14,46,20.70
2015,08,05,14,47,20.70
2015,08,05,14,48,20.70
2015,08,05,14,49,20.70
2015,08,05,14,50,20.80
2015,08,05,14,51,20.90
2015,08,05,14,52,21.00
2015,08,05,14,53,21.00
2015,08,05,14,54,21.10
2015,08,05,14,55,21.00
2015,08,05,14,56,21.00
2015,08,05,14,57,20.80
2015,08,05,14,58,20.70
2015,08,05,14,59,20.50
2015,08,05,15,00,20.40
2015,08,05,15,01,20.30
2015,08,05,15,02,20.20
2015,08,05,15,03,20.10
2015,08,05,15,04,20.00
2015,08,05,15,05,19.90
2015,08,05,15,06,19.90
2015,08,05,15,07,19.90
2015,08,05,15,08,20.00
2015,08,05,15,09,20.10
2015,08,05,15,10,20.20
2015,08,05,15,11,20.30
2015,08,05,15,12,20.30
2015,08,05,15,13,20.30
2015,08,05,15,14,20.30
2015,08,05,15,15,20.30
2015,08,05,15,16,20.30
2015,08,05,15,17,20.30
2015,08,05,15,18,20.30
2015,08,05,15,19,20.30
2015,08,05,15,20,20.30
2015,08,05,15,21,20.40
2015,08,05,15,22,20.40
2015,08,05,15,23,20.40
2015,08,05,15,24,20.50
2015,08,05,15,25,20.40
2015,08,05,15,26,20.40
2015,08,05,15,27,20.40
2015,08,05,15,28,20.30
2015,08,05,15,29,20.20
2015,08,05,15,30,20.10
2015,08,05,15,31,20.20
2015,08,05,15,32,20.20
2015,08,05,15,33,20.10
2015,08,05,15,34,20.20
2015,08,05,15,35,20.20
2015,08,05,15,36,20.20
2015,08,05,15,37,20.10
2015,08,05,15,38,20.10
2015,08,05,15,39,20.10
2015,08,05,15,40,20.10
2015,08,05,15,41,20.10
2015,08,05,15,42,20.20
2015,08,05,15,43,20.10
2015,08,05,15,44,20.00
2015,08,05,15,45,19.90
2015,08,05,15,46,19.80
2015,08,05,15,47,19.80
2015,08,05,15,48,19.80
2015,08,05,15,49,19.80
2015,08,05,15,50,19.70
2015,08,05,15,51,19.70
2015,08,05,15,52,19.60
2015,08,05,15,53,19.60
2015,08,05,15,54,19.50
2015,08,05,15,55,19.50
2015,08,05,15,56,19.40
2015,08,05,15,57,19.40
2015,08,05,15,58,19.40
2015,08,05,15,59,19.40
2015,08,05,16,00,19.30
2015,08,05,16,01,19.20
2015,08,05,16,02,19.00
2015,08,05,16,03,18.80
2015,08,05,16,04,18.70
2015,08,05,16,05,18.60
2015,08,05,16,06,18.50
2015,08,05,16,07,18.40
2015,08,05,16,08,18.40
2015,08,05,16,09,18.30
2015,08,05,16,10,18.30
2015,08,05,16,11,18.40
2015,08,05,16,12,18.40
2015,08,05,16,13,18.40
2015,08,05,16,14,18.40
2015,08,05,16,15,18.40
2015,08,05,16,16,18.30
2015,08,05,16,17,18.30
2015,08,05,16,18,18.30
2015,08,05,16,19,18.40
2015,08,05,16,20,18.40
2015,08,05,16,21,18.40
2015,08,05,16,22,18.40
2015,08,05,16,23,18.40
2015,08,05,16,24,18.40
2015,08,05,16,25,18.40
2015,08,05,16,26,18.40
2015,08,05,16,27,18.40
2015,08,05,16,28,18.40
2015,08,05,16,29,18.40
2015,08,05,16,30,18.40
2015,08,05,16,31,18.30
2015,08,05,16,32,18.30
2015,08,05,16,33,18.30
2015,08,05,16,34,18.30
2015,08,05,16,35,18.20
2015,08,05,16,36,18.20
2015,08,05,16,37,18.20
2015,08,05,16,38,18.20
2015,08,05,16,39,18.20
2015,08,05,16,40,18.20
2015,08,05,16,41,18.20
2015,08,05,16,42,18.20
2015,08,05,16,43,18.20
2015,08,05,16,44,18.20
2015,08,05,16,45,18.20
2015,08,05,16,46,18.20
2015,08,05,16,47,18.20
2015,08,05,16,48,18.20
2015,08,05,16,49,18.30
2015,08,05,16,50,18.30
2015,08,05,16,51,18.30
2015,08,05,16,52,18.30
2015,08,05,16,53,18.40
2015,08,05,16,54,18.40
2015,08,05,16,55,18.50
2015,08,05,16,56,18.50
2015,08,05,16,57,18.60
2015,08,05,16,58,18.60
2015,08,05,16,59,18.60
2015,08,05,17,00,18.70
2015,08,05,17,01,18.70
2015,08,05,17,02,18.70
2015,08,05,17,03,18.70
2015,08,05,17,04,18.70
2015,08,05,17,05,18.70
2015,08,05,17,06,18.70
2015,08,05,17,07,18.80
2015,08,05,17,08,18.80
2015,08,05,17,09,18.80
2015,08,05,17,10,18.70
2015,08,05,17,11,18.60
2015,08,05,17,12,18.60
2015,08,05,17,13,18.60
2015,08,05,17,14,18.50
2015,08,05,17,15,18.50
2015,08,05,17,16,18.50
2015,08,05,17,17,18.40
2015,08,05,17,18,18.40
2015,08,05,17,19,18.30